"Pseudo-MPEC" for P10UbqB

Created 2019 Nov 12 18:07:15 UT using Find_Orb

Click here for an explanation of pseudo-MPECs

 
 Astrometry: 
     P10UbqB  C2019 11 05u^-\dX;Z^_E,E1,vI0*f[u2Astrometry8M5!Hs.^8@yLX8rd7]JF51
     P10UbqB  C2019 11 054']01#Eredacted;a%2y__h:-b#kTwEV7RtO6E=jTT7WSR6e,PJtF51
     P10UbqB  C2019 11 05D16GWjEVKUm#OvmN9]Tm7clickF$kxo0*y[%Cl;EI`D%1hereyMhF51
     P10UbqB  C2019 11 05NI\#=sforWdeWCVVl@:explanationk!shHi3KOW+:02\_5R8Mq#F51

Station data:
(F51) Pan-STARRS 1, Haleakala  (N20.707235 W156.255910)  US/Hawaii.
   Observers N. Primak, A. Schultz, S. Watters, J. Thiel, T. Goggia. Measurer
   PS1 Science Consortium. 1.8-m Ritchey-Chrétien + CCD.

Orbital elements:  P10UbqB
   Perihelion 2020 Mar 12.508702 +/- 84.5 TT = 12:12:31 (JD 2458921.008702)
Epoch 2019 Nov  6.0 TT = JDT 2458793.5   Earth MOID: 0.3527   Ma: 0.0805
M 280.64998300 +/- 34               (J2000 ecliptic)          AutoNEOCP
n   0.62231060 +/- 0.329            Peri.   86.99006 +/- 90
a   1.35872400 +/- 0.48             Node    37.58246 +/- 33
e   0.0136684 +/- 0.281             Incl.   17.10879 +/- 20
P   1.58/578.48d           H 22.8   G  0.15   U 12.0  SR
q 1.34015236 +/- 0.457    Q 1.37729564 +/- 31
From 4 observations 2019 Nov. 5 (53.1 min); mean residual 0".05
Residuals in arcseconds: 
191105 F51  .05-  .04-    191105 F51  .05-  .00     
191105 F51  .10+  .06+    191105 F51  .00   .02-    

Ephemerides (geocentric):
Date (UTC) HH   RA              Dec         delta   r     elong  mag " sig PA
---- -- -- --  -------------   -----------  ------ ------ -----  --- ---- ---
2019 11 12 18  02 19 44.344   +25 38 30.97  .37248 1.3542 166.0 22.0  30d 165
2019 11 12 19  02 19 37.070   +25 39 34.90  .37255 1.3542 165.9 22.0  30d 165
2019 11 12 20  02 19 29.799   +25 40 38.77  .37262 1.3542 165.9 22.0  30d 165
2019 11 12 21  02 19 22.532   +25 41 42.56  .37269 1.3542 165.8 22.0  30d 165
2019 11 12 22  02 19 15.267   +25 42 46.29  .37276 1.3542 165.8 22.0  30d 165
2019 11 12 23  02 19 08.006   +25 43 49.95  .37283 1.3542 165.7 22.0  31d 165
2019 11 13 00  02 19 00.749   +25 44 53.54  .37290 1.3542 165.7 22.0  31d 165
2019 11 13 01  02 18 53.494   +25 45 57.06  .37298 1.3541 165.6 22.0  31d 165
2019 11 13 02  02 18 46.243   +25 47 00.51  .37305 1.3541 165.5 22.0  31d 165
2019 11 13 03  02 18 38.996   +25 48 03.89  .37312 1.3541 165.5 22.0  31d 165
2019 11 13 04  02 18 31.752   +25 49 07.20  .37319 1.3541 165.4 22.0  31d 165
2019 11 13 05  02 18 24.511   +25 50 10.44  .37327 1.3541 165.4 22.0  31d 165
2019 11 13 06  02 18 17.274   +25 51 13.61  .37334 1.3541 165.3 22.0  31d 165
2019 11 13 07  02 18 10.040   +25 52 16.72  .37341 1.3541 165.2 22.0  31d 165
2019 11 13 08  02 18 02.810   +25 53 19.75  .37349 1.3541 165.2 22.0  31d 165
2019 11 13 09  02 17 55.584   +25 54 22.71  .37356 1.3541 165.1 22.0  31d 165
2019 11 13 10  02 17 48.361   +25 55 25.60  .37364 1.3541 165.1 22.1  31d 165
2019 11 13 11  02 17 41.142   +25 56 28.42  .37371 1.3541 165.0 22.1  31d 165
2019 11 13 12  02 17 33.926   +25 57 31.18  .37379 1.3541 165.0 22.1  31d 165
2019 11 13 13  02 17 26.714   +25 58 33.86  .37386 1.3540 164.9 22.1  31d 165
2019 11 13 14  02 17 19.506   +25 59 36.47  .37394 1.3540 164.8 22.1  31d 165
2019 11 13 15  02 17 12.301   +26 00 39.01  .37401 1.3540 164.8 22.1  31d 165
2019 11 13 16  02 17 05.100   +26 01 41.48  .37409 1.3540 164.7 22.1  31d 165
2019 11 13 17  02 16 57.904   +26 02 43.88  .37417 1.3540 164.7 22.1  31d 165
2019 11 13 18  02 16 50.710   +26 03 46.21  .37425 1.3540 164.6 22.1  31d 165
2019 11 13 19  02 16 43.521   +26 04 48.47  .37432 1.3540 164.5 22.1  31d 165
2019 11 13 20  02 16 36.336   +26 05 50.66  .37440 1.3540 164.5 22.1  31d 165
2019 11 13 21  02 16 29.154   +26 06 52.77  .37448 1.3540 164.4 22.1  31d 165
2019 11 13 22  02 16 21.977   +26 07 54.82  .37456 1.3540 164.4 22.1  31d 165
2019 11 13 23  02 16 14.803   +26 08 56.79  .37464 1.3540 164.3 22.1  31d 165
2019 11 14 00  02 16 07.633   +26 09 58.70  .37472 1.3540 164.2 22.1  31d 165
2019 11 14 01  02 16 00.468   +26 11 00.53  .37480 1.3539 164.2 22.1  31d 165
2019 11 14 02  02 15 53.306   +26 12 02.29  .37488 1.3539 164.1 22.1  31d 165
2019 11 14 03  02 15 46.149   +26 13 03.99  .37496 1.3539 164.1 22.1  32d 165
2019 11 14 04  02 15 38.995   +26 14 05.61  .37504 1.3539 164.0 22.1  32d 165
2019 11 14 05  02 15 31.846   +26 15 07.15  .37512 1.3539 163.9 22.1  32d 165
2019 11 14 06  02 15 24.701   +26 16 08.63  .37520 1.3539 163.9 22.1  32d 165
2019 11 14 07  02 15 17.560   +26 17 10.04  .37528 1.3539 163.8 22.1  32d 165
2019 11 14 08  02 15 10.423   +26 18 11.37  .37537 1.3539 163.8 22.1  32d 165
2019 11 14 09  02 15 03.290   +26 19 12.64  .37545 1.3539 163.7 22.1  32d 165
2019 11 14 10  02 14 56.162   +26 20 13.83  .37553 1.3539 163.7 22.1  32d 166
2019 11 14 11  02 14 49.038   +26 21 14.95  .37562 1.3539 163.6 22.1  32d 166
2019 11 14 12  02 14 41.918   +26 22 16.00  .37570 1.3539 163.5 22.1  32d 166
2019 11 14 13  02 14 34.802   +26 23 16.97  .37578 1.3539 163.5 22.1  32d 166
2019 11 14 14  02 14 27.691   +26 24 17.88  .37587 1.3538 163.4 22.1  32d 166
2019 11 14 15  02 14 20.584   +26 25 18.71  .37595 1.3538 163.4 22.1  32d 166
2019 11 14 16  02 14 13.482   +26 26 19.47  .37604 1.3538 163.3 22.1  32d 166
2019 11 14 17  02 14 06.384   +26 27 20.16  .37612 1.3538 163.2 22.1  32d 166